Date String (YYYY-MM-DD hh:mm:ss) UTC,Instrument flags,Ambient pressure (hPa),Sample flow (lpm),Bypass flow (lpm),Sample temperature (°C),Ambient temperature (°C),ASC tube jacket temperature (°C),LED temperature (°C),Box temperature (°C),Sample RH (%),Span deviation,Mass concentration (μg/m³),Mass concentration (μg/m³),Mass concentration (μg/m³)
DateTimeUTC,F1_M11,P_M11,Q1_M11,Q2_M11,T1_M11,T2_M11,T3_M11,T4_M11,T5_M11,U1_M11,ZSPAN_M11,X0_M11,X2_M11,X1_M11
2022-08-17 06:00:00,,0831.6,4.99,0.00,29.7,28.6,00.0,38.5,31.7,28.3,0000.0,0007.93,0004.60,0004.08
2022-08-17 06:01:00,,0831.6,4.99,0.00,29.8,28.7,00.0,38.5,31.7,28.2,0000.0,0007.96,0004.61,0004.10
2022-08-17 06:02:00,,0831.6,5.00,0.00,29.8,28.7,00.0,38.5,31.7,28.2,0000.0,0007.98,0004.62,0004.10
2022-08-17 06:03:00,,0831.6,5.00,0.00,29.8,28.7,00.0,38.5,31.7,28.1,0000.0,0007.99,0004.62,0004.11
2022-08-17 06:04:00,,0831.6,5.01,0.00,29.8,28.8,00.0,38.5,31.8,28.1,0000.0,0008.05,0004.66,0004.11
2022-08-17 06:05:00,,0831.6,4.99,0.00,29.8,28.8,00.0,38.5,31.8,28.0,0000.0,0008.04,0004.69,0004.10
2022-08-17 06:06:00,,0831.6,5.00,0.00,29.8,28.9,00.0,38.6,31.8,27.9,0000.0,0008.04,0004.68,0004.10
2022-08-17 06:07:00,,0831.6,4.99,0.00,29.9,28.9,00.0,38.6,31.8,27.8,0000.0,0008.18,0004.70,0004.10
2022-08-17 06:08:00,,0831.6,5.00,0.00,29.9,28.9,00.0,38.6,31.8,27.7,0000.0,0008.84,0004.71,0004.10
2022-08-17 06:09:00,,0831.6,5.00,0.00,29.9,28.9,00.0,38.6,31.9,27.6,0000.0,0008.73,0004.69,0004.09
2022-08-17 06:10:00,,0831.5,5.01,0.00,29.9,29.0,00.0,38.6,31.9,27.7,0000.0,0008.98,0004.71,0004.10
2022-08-17 06:11:00,,0831.5,4.99,0.00,30.0,29.0,00.0,38.7,31.9,27.6,0000.0,0008.93,0004.69,0004.10
2022-08-17 06:12:00,,0831.6,5.00,0.00,30.0,28.6,00.0,38.6,31.8,27.5,0000.0,0008.90,0004.69,0004.10
2022-08-17 06:13:00,,0831.5,5.00,0.00,29.9,27.9,00.0,38.6,31.6,27.6,0000.0,0008.94,0004.71,0004.10
2022-08-17 06:14:00,,0831.6,5.00,0.00,29.8,27.6,00.0,38.6,31.5,27.8,0000.0,0008.92,0004.70,0004.11
2022-08-17 06:15:00,,0831.5,4.99,0.00,29.7,27.6,00.0,38.5,31.4,28.0,0000.0,0008.92,0004.67,0004.11
2022-08-17 06:16:00,,0831.6,5.00,0.00,29.7,27.6,00.0,38.5,31.4,27.9,0000.0,0008.79,0004.64,0004.11
2022-08-17 06:17:00,,0831.6,4.99,0.00,29.6,27.7,00.0,38.5,31.4,28.0,0000.0,0008.77,0004.65,0004.11
2022-08-17 06:18:00,,0831.6,5.00,0.00,29.6,27.8,00.0,38.5,31.4,28.0,0000.0,0008.60,0004.59,0004.10
2022-08-17 06:19:00,,0831.6,4.99,0.00,29.6,28.0,00.0,38.5,31.4,28.0,0000.0,0007.98,0004.60,0004.09
2022-08-17 06:20:00,,0831.6,5.00,0.00,29.6,28.1,00.0,38.5,31.4,28.0,0000.0,0007.97,0004.64,0004.10
2022-08-17 06:21:00,,0831.6,5.00,0.00,29.6,28.2,00.0,38.5,31.5,28.1,0000.0,0007.81,0004.67,0004.11
2022-08-17 06:22:00,,0831.6,5.00,0.00,29.6,28.3,00.0,38.5,31.5,28.2,0000.0,0007.75,0004.65,0004.12
2022-08-17 06:23:00,,0831.6,4.99,0.00,29.6,28.3,00.0,38.5,31.5,28.1,0000.0,0008.08,0004.68,0004.13
2022-08-17 06:24:00,,0831.7,5.01,0.00,29.7,28.4,00.0,38.5,31.5,28.1,0000.0,0008.10,0004.69,0004.15
2022-08-17 06:25:00,,0831.6,5.00,0.00,29.7,28.5,00.0,38.5,31.6,28.0,0000.0,0008.20,0004.73,0004.16
2022-08-17 06:26:00,,0831.7,4.99,0.00,29.7,28.5,00.0,38.5,31.6,27.9,0000.0,0008.13,0004.73,0004.18
2022-08-17 06:27:00,,0831.7,5.00,0.00,29.7,28.6,00.0,38.5,31.6,27.7,0000.0,0008.17,0004.73,0004.18
2022-08-17 06:28:00,,0831.7,5.01,0.00,29.7,28.6,00.0,38.5,31.7,27.5,0000.0,0008.75,0004.72,0004.20
2022-08-17 06:29:00,,0831.6,5.00,0.00,29.8,28.7,00.0,38.5,31.7,27.2,0000.0,0009.13,0004.77,0004.20
2022-08-17 06:30:00,,0831.7,4.99,0.00,29.8,28.7,00.0,38.5,31.7,27.1,0000.0,0009.26,0004.76,0004.21
2022-08-17 06:31:00,,0831.7,5.00,0.00,29.8,28.7,00.0,38.5,31.7,27.1,0000.0,0009.39,0004.72,0004.21
2022-08-17 06:32:00,,0831.7,5.00,0.00,29.8,28.8,00.0,38.5,31.7,27.0,0000.0,0009.31,0004.70,0004.21
2022-08-17 06:33:00,,0831.7,5.01,0.00,29.8,28.8,00.0,38.6,31.7,27.4,0000.0,0009.29,0004.71,0004.20
2022-08-17 06:34:00,,0831.7,5.00,0.00,29.8,28.8,00.0,38.6,31.8,27.4,0000.0,0009.04,0004.69,0004.19
2022-08-17 06:35:00,,0831.8,5.00,0.00,29.9,28.9,00.0,38.6,31.8,27.6,0000.0,0008.99,0004.68,0004.18
2022-08-17 06:36:00,,0831.7,5.00,0.00,29.9,28.9,00.0,38.6,31.8,27.7,0000.0,0008.94,0004.69,0004.19
2022-08-17 06:37:00,,0831.7,5.01,0.00,29.9,28.9,00.0,38.6,31.8,27.6,0000.0,0008.92,0004.68,0004.18
2022-08-17 06:38:00,,0831.8,5.01,0.00,29.9,28.9,00.0,38.6,31.9,27.4,0000.0,0008.86,0004.66,0004.19
2022-08-17 06:39:00,,0831.7,5.00,0.00,29.9,29.0,00.0,38.6,31.9,27.4,0000.0,0008.21,0004.66,0004.19
2022-08-17 06:40:00,,0831.7,5.00,0.00,30.0,29.0,00.0,38.7,31.9,27.5,0000.0,0007.91,0004.66,0004.20
2022-08-17 06:41:00,,0831.7,5.00,0.00,30.0,29.0,00.0,38.7,31.9,27.7,0000.0,0007.81,0004.71,0004.22
2022-08-17 06:42:00,,0831.7,5.00,0.00,30.0,29.0,00.0,38.7,31.9,27.9,0000.0,0007.63,0004.74,0004.22
2022-08-17 06:43:00,,0831.7,5.01,0.00,30.0,28.6,00.0,38.7,31.8,27.6,0000.0,0007.94,0004.76,0004.23
2022-08-17 06:44:00,,0831.7,4.99,0.00,29.9,27.8,00.0,38.6,31.6,27.8,0000.0,0008.26,0004.79,0004.24
2022-08-17 06:45:00,,0831.7,5.00,0.00,29.8,27.5,00.0,38.6,31.5,27.8,0000.0,0008.20,0004.78,0004.25
2022-08-17 06:46:00,,0831.7,4.99,0.00,29.7,27.5,00.0,38.6,31.4,27.9,0000.0,0008.28,0004.79,0004.26
2022-08-17 06:47:00,,0831.7,5.01,0.00,29.7,27.5,00.0,38.5,31.4,28.0,0000.0,0008.35,0004.77,0004.25
2022-08-17 06:48:00,,0831.7,4.99,0.00,29.7,27.7,00.0,38.5,31.4,27.9,0000.0,0008.39,0004.79,0004.24
2022-08-17 06:49:00,,0831.7,5.00,0.00,29.7,27.8,00.0,38.5,31.4,27.9,0000.0,0008.46,0004.82,0004.24
2022-08-17 06:50:00,,0831.7,5.00,0.00,29.7,27.9,00.0,38.5,31.4,27.9,0000.0,0009.18,0004.85,0004.25
2022-08-17 06:51:00,,0831.7,5.00,0.00,29.6,28.0,00.0,38.5,31.4,27.9,0000.0,0009.33,0004.81,0004.24
2022-08-17 06:52:00,,0831.9,5.01,0.00,29.6,28.1,00.0,38.5,31.5,27.8,0000.0,0009.41,0004.78,0004.24
2022-08-17 06:53:00,,0831.7,4.99,0.00,29.7,28.2,00.0,38.5,31.5,27.6,0000.0,0009.45,0004.76,0004.24
2022-08-17 06:54:00,,0831.7,5.00,0.00,29.7,28.3,00.0,38.5,31.5,27.6,0000.0,0009.13,0004.72,0004.22
2022-08-17 06:55:00,,0831.7,5.00,0.00,29.7,28.4,00.0,38.5,31.5,27.9,0000.0,0009.11,0004.69,0004.20
2022-08-17 06:56:00,,0831.7,5.00,0.00,29.7,28.5,00.0,38.5,31.6,28.0,0000.0,0009.50,0004.68,0004.18
2022-08-17 06:57:00,,0831.7,5.00,0.00,29.7,28.5,00.0,38.5,31.6,28.4,0000.0,0009.46,0004.68,0004.16
2022-08-17 06:58:00,,0831.7,5.00,0.00,29.7,28.6,00.0,38.5,31.6,28.3,0000.0,0009.40,0004.68,0004.15
2022-08-17 06:59:00,,0831.7,4.99,0.00,29.7,28.6,00.0,38.5,31.7,27.8,0000.0,0009.47,0004.70,0004.15
